RYR9249 LFBO-GCTS

Flight info

Callsign RYR9249
Flight time 3h 31m
Altitude 37000
Route GAUDE DCT TIVLI N869 ZAR DCT KONKE DCT TERSA DCT CJN DCT VTB DCT INPAN DCT CRISA DCT HIJ DCT SVL DCT CLANA DCT KORNO UN857 TERTO
Aircraft B38M/M-SADE3FGHIJ1LRWXY/SB1

Departure

Time 2026-04-29 10:14
Airport Toulouse-Blagnac Airport (LFBO)

Arrival

Time 2026-04-29 13:45
Airport Tenerife Sur Airport (GCTS)
Time Latitude Longitude Altitude Speed Heading
2026-04-29 09:56 43.62833 1.37628 496 ft 0 kts 53°
2026-04-29 10:03 43.62825 1.37614 487 ft 4 kts 53°
2026-04-29 10:04 43.62812 1.37590 488 ft 4 kts 50°
2026-04-29 10:04 43.62794 1.37575 493 ft 4 kts 346°
2026-04-29 10:04 43.62774 1.37592 496 ft 4 kts 323°
2026-04-29 10:04 43.62768 1.37598 491 ft 1 kts 323°
2026-04-29 10:06 43.62773 1.37593 496 ft 2 kts 324°
2026-04-29 10:07 43.62791 1.37575 494 ft 5 kts 323°
2026-04-29 10:07 43.62813 1.37551 490 ft 3 kts 322°
2026-04-29 10:07 43.62824 1.37534 496 ft 2 kts 299°
2026-04-29 10:07 43.62827 1.37512 496 ft 3 kts 267°
2026-04-29 10:08 43.62818 1.37466 496 ft 5 kts 253°
2026-04-29 10:08 43.62815 1.37452 490 ft 4 kts 252°
2026-04-29 10:08 43.62802 1.37397 491 ft 7 kts 253°
2026-04-29 10:08 43.62815 1.37341 492 ft 10 kts 315°
2026-04-29 10:09 43.62878 1.37275 493 ft 13 kts 325°
2026-04-29 10:09 43.62889 1.37172 488 ft 17 kts 238°
2026-04-29 10:09 43.62827 1.37054 488 ft 8 kts 244°
2026-04-29 10:09 43.62852 1.36993 479 ft 9 kts 324°
2026-04-29 10:10 43.62906 1.36938 488 ft 11 kts 322°
2026-04-29 10:10 43.62969 1.36871 493 ft 12 kts 323°
2026-04-29 10:10 43.63042 1.36795 493 ft 14 kts 322°
2026-04-29 10:10 43.63123 1.36709 496 ft 16 kts 323°
2026-04-29 10:11 43.63214 1.36615 491 ft 17 kts 323°
2026-04-29 10:11 43.63315 1.36513 496 ft 19 kts 323°
2026-04-29 10:11 43.63423 1.36402 494 ft 20 kts 323°
2026-04-29 10:11 43.63538 1.36282 494 ft 21 kts 323°
2026-04-29 10:12 43.63661 1.36154 491 ft 23 kts 323°
2026-04-29 10:12 43.63782 1.36028 491 ft 17 kts 323°
2026-04-29 10:12 43.63811 1.35923 492 ft 12 kts 243°
2026-04-29 10:12 43.63756 1.35823 487 ft 14 kts 236°
2026-04-29 10:13 43.63705 1.35797 496 ft 8 kts 152°
2026-04-29 10:13 43.63573 1.35933 496 ft 56 kts 143°
2026-04-29 10:13 43.63071 1.36454 496 ft 122 kts 143°
2026-04-29 10:13 43.62261 1.37294 634 ft 161 kts 143°
2026-04-29 10:14 43.61381 1.38227 1483 ft 157 kts 140°
2026-04-29 10:14 43.60487 1.39154 2186 ft 161 kts 142°
2026-04-29 10:14 43.59514 1.40101 2639 ft 181 kts 143°
2026-04-29 10:14 43.58406 1.41180 2971 ft 209 kts 143°
2026-04-29 10:15 43.57157 1.42394 3545 ft 224 kts 143°
2026-04-29 10:15 43.55841 1.43679 4146 ft 241 kts 145°
2026-04-29 10:15 43.54424 1.45061 4690 ft 258 kts 145°
2026-04-29 10:15 43.52956 1.46496 5450 ft 264 kts 145°
2026-04-29 10:16 43.51445 1.47973 6316 ft 269 kts 145°
2026-04-29 10:16 43.50394 1.48952 6831 ft 272 kts 153°
2026-04-29 10:16 43.47991 1.49665 7945 ft 271 kts 186°
2026-04-29 10:16 43.46208 1.48859 8775 ft 273 kts 211°
2026-04-29 10:17 43.44825 1.47073 9611 ft 278 kts 234°
2026-04-29 10:17 43.44048 1.44609 10292 ft 289 kts 256°
2026-04-29 10:17 43.43937 1.41744 10645 ft 311 kts 269°
2026-04-29 10:17 43.43661 1.38777 11137 ft 315 kts 246°
2026-04-29 10:18 43.42447 1.36273 11698 ft 320 kts 224°
2026-04-29 10:18 43.40866 1.34098 12422 ft 323 kts 225°
2026-04-29 10:18 43.39312 1.31849 13175 ft 326 kts 226°
2026-04-29 10:18 43.37745 1.29567 13912 ft 329 kts 226°
2026-04-29 10:19 43.36164 1.27260 14552 ft 333 kts 226°
2026-04-29 10:19 43.34572 1.24933 15211 ft 336 kts 226°
2026-04-29 10:19 43.32959 1.22578 15855 ft 340 kts 226°
2026-04-29 10:19 43.31461 1.20060 16464 ft 345 kts 239°
2026-04-29 10:20 43.30616 1.16971 17110 ft 350 kts 258°
2026-04-29 10:20 43.30484 1.13608 17712 ft 357 kts 269°
2026-04-29 10:20 43.30535 1.10179 18291 ft 361 kts 269°
2026-04-29 10:20 43.30606 1.06723 18818 ft 363 kts 269°
2026-04-29 10:21 43.30691 1.03249 19344 ft 366 kts 270°
2026-04-29 10:21 43.30775 0.99748 19860 ft 368 kts 267°
2026-04-29 10:21 43.30378 0.96347 20348 ft 366 kts 249°
2026-04-29 10:21 43.29182 0.93281 20838 ft 367 kts 231°
2026-04-29 10:22 43.27360 0.90831 21308 ft 369 kts 218°
2026-04-29 10:22 43.25325 0.88656 21783 ft 373 kts 217°
2026-04-29 10:22 43.23247 0.86516 22299 ft 375 kts 217°
2026-04-29 10:22 43.21133 0.84387 22787 ft 378 kts 216°
2026-04-29 10:23 43.19002 0.82266 23277 ft 381 kts 216°
2026-04-29 10:23 43.16831 0.80124 23705 ft 385 kts 216°
2026-04-29 10:23 43.14651 0.77982 24147 ft 386 kts 216°
2026-04-29 10:23 43.12461 0.75835 24589 ft 388 kts 216°
2026-04-29 10:24 43.10259 0.73680 25024 ft 390 kts 216°
2026-04-29 10:24 43.08046 0.71517 25439 ft 392 kts 216°
2026-04-29 10:24 43.05817 0.69340 25851 ft 394 kts 216°
2026-04-29 10:24 43.03585 0.67161 26273 ft 396 kts 216°
2026-04-29 10:25 43.01480 0.64733 26664 ft 397 kts 229°
2026-04-29 10:25 42.99985 0.61561 27038 ft 400 kts 245°
2026-04-29 10:25 42.99131 0.57931 27388 ft 404 kts 253°
2026-04-29 10:25 42.98402 0.54213 27724 ft 406 kts 253°
2026-04-29 10:26 42.97697 0.50466 28087 ft 408 kts 254°
2026-04-29 10:26 42.97006 0.46704 28462 ft 409 kts 254°
2026-04-29 10:26 42.96323 0.42922 28783 ft 412 kts 254°
2026-04-29 10:26 42.95640 0.39118 29135 ft 413 kts 254°
2026-04-29 10:27 42.94269 0.31470 29765 ft 417 kts 254°
2026-04-29 10:27 42.93576 0.27614 30102 ft 419 kts 254°
2026-04-29 10:27 42.92880 0.23753 30349 ft 420 kts 254°
2026-04-29 10:28 42.92180 0.19872 30616 ft 422 kts 254°
2026-04-29 10:28 42.91477 0.15986 30872 ft 423 kts 254°
2026-04-29 10:28 42.90769 0.12084 31146 ft 424 kts 254°
2026-04-29 10:28 42.90058 0.08170 31391 ft 426 kts 254°
2026-04-29 10:29 42.89353 0.04299 31653 ft 427 kts 253°
2026-04-29 10:29 42.88626 0.00312 31941 ft 429 kts 253°
2026-04-29 10:29 42.87903 -0.03640 32221 ft 430 kts 253°
2026-04-29 10:29 42.87178 -0.07598 32534 ft 430 kts 253°
2026-04-29 10:30 42.86466 -0.11482 32921 ft 428 kts 253°
2026-04-29 10:30 42.85741 -0.15422 33253 ft 427 kts 253°
2026-04-29 10:30 42.85016 -0.19352 33578 ft 426 kts 253°
2026-04-29 10:30 42.84295 -0.23258 33892 ft 426 kts 253°
2026-04-29 10:31 42.83571 -0.27169 34151 ft 425 kts 253°
2026-04-29 10:31 42.82848 -0.31067 34396 ft 425 kts 253°
2026-04-29 10:31 42.82123 -0.34975 34627 ft 425 kts 253°
2026-04-29 10:31 42.81172 -0.38744 34840 ft 420 kts 240°
2026-04-29 10:32 42.79516 -0.41988 35086 ft 416 kts 226°
2026-04-29 10:32 42.77300 -0.44499 35232 ft 416 kts 211°
2026-04-29 10:32 42.74720 -0.46294 35410 ft 417 kts 205°
2026-04-29 10:32 42.72065 -0.47907 35554 ft 419 kts 204°
2026-04-29 10:33 42.69377 -0.49430 35765 ft 419 kts 203°
2026-04-29 10:33 42.66668 -0.50911 35944 ft 420 kts 202°
2026-04-29 10:33 42.63943 -0.52372 36150 ft 420 kts 202°
2026-04-29 10:33 42.61225 -0.53810 36316 ft 420 kts 202°
2026-04-29 10:34 42.58496 -0.55246 36502 ft 420 kts 202°
2026-04-29 10:34 42.55774 -0.56673 36676 ft 420 kts 202°
2026-04-29 10:34 42.53041 -0.58103 36844 ft 420 kts 202°
2026-04-29 10:34 42.50317 -0.59528 36947 ft 421 kts 202°
2026-04-29 10:35 42.47582 -0.60957 36953 ft 420 kts 202°
2026-04-29 10:35 42.42131 -0.63802 36942 ft 420 kts 202°
2026-04-29 10:36 42.36686 -0.66637 36937 ft 420 kts 202°
2026-04-29 10:36 42.31263 -0.69456 36950 ft 420 kts 202°
2026-04-29 10:37 42.25808 -0.72287 36950 ft 420 kts 202°
2026-04-29 10:37 42.20344 -0.75116 36943 ft 421 kts 202°
2026-04-29 10:38 42.14884 -0.77939 36943 ft 421 kts 201°
2026-04-29 10:38 42.09414 -0.80762 36951 ft 421 kts 201°
2026-04-29 10:39 42.03943 -0.83581 36938 ft 421 kts 201°
2026-04-29 10:39 41.98460 -0.86398 36935 ft 422 kts 201°
2026-04-29 10:40 41.92978 -0.89211 36936 ft 422 kts 201°
2026-04-29 10:40 41.87486 -0.92024 36931 ft 422 kts 201°
2026-04-29 10:41 41.81998 -0.94829 36939 ft 422 kts 201°
2026-04-29 10:41 41.76505 -0.97633 36933 ft 422 kts 201°
2026-04-29 10:42 41.71009 -1.00431 36935 ft 423 kts 201°
2026-04-29 10:42 41.65660 -1.03618 36919 ft 420 kts 217°
2026-04-29 10:43 41.61226 -1.08713 36947 ft 422 kts 221°
2026-04-29 10:43 41.57568 -1.13046 36927 ft 422 kts 221°
2026-04-29 10:44 41.53203 -1.18286 36936 ft 422 kts 221°
2026-04-29 10:44 41.48843 -1.23528 36934 ft 422 kts 221°
2026-04-29 10:45 41.43771 -1.29618 36926 ft 422 kts 221°
2026-04-29 10:45 41.40116 -1.33998 36924 ft 422 kts 221°
2026-04-29 10:46 41.35751 -1.39220 36924 ft 422 kts 221°
2026-04-29 10:46 41.31378 -1.44441 36922 ft 422 kts 221°
2026-04-29 10:47 41.27010 -1.49646 36920 ft 422 kts 221°
2026-04-29 10:47 41.22661 -1.54820 36925 ft 422 kts 221°
2026-04-29 10:48 41.18284 -1.60016 36921 ft 422 kts 221°
2026-04-29 10:48 41.13937 -1.65168 36916 ft 422 kts 221°
2026-04-29 10:49 41.09552 -1.70356 36921 ft 422 kts 221°
2026-04-29 10:49 41.05166 -1.75535 36916 ft 422 kts 221°
2026-04-29 10:50 41.00774 -1.80708 36919 ft 423 kts 221°
2026-04-29 10:50 40.96382 -1.85872 36919 ft 423 kts 221°
2026-04-29 10:51 40.91985 -1.91032 36922 ft 423 kts 221°
2026-04-29 10:51 40.87579 -1.96195 36923 ft 423 kts 221°
2026-04-29 10:52 40.83162 -2.01359 36928 ft 424 kts 221°
2026-04-29 10:52 40.78753 -2.06506 36923 ft 424 kts 221°
2026-04-29 10:53 40.74329 -2.11660 36928 ft 424 kts 221°
2026-04-29 10:53 40.69899 -2.16802 36929 ft 424 kts 221°
2026-04-29 10:54 40.65466 -2.21936 36931 ft 425 kts 221°
2026-04-29 10:54 40.61024 -2.27072 36932 ft 425 kts 221°
2026-04-29 10:55 40.56584 -2.32196 36929 ft 425 kts 221°
2026-04-29 10:55 40.52135 -2.37322 36926 ft 425 kts 221°
2026-04-29 10:56 40.47686 -2.42437 36935 ft 425 kts 221°
2026-04-29 10:56 40.43235 -2.47547 36925 ft 425 kts 220°
2026-04-29 10:57 40.38781 -2.52650 36929 ft 425 kts 220°
2026-04-29 10:57 40.34769 -2.58326 36921 ft 426 kts 229°
2026-04-29 10:58 40.30967 -2.64283 36927 ft 427 kts 229°
2026-04-29 10:58 40.27165 -2.70256 36922 ft 427 kts 229°
2026-04-29 10:59 40.23391 -2.76177 36925 ft 427 kts 229°
2026-04-29 10:59 40.19580 -2.82144 36917 ft 427 kts 229°
2026-04-29 11:00 40.15773 -2.88093 36928 ft 427 kts 229°
2026-04-29 11:00 40.11953 -2.94054 36921 ft 427 kts 229°
2026-04-29 11:01 40.08140 -2.99990 36920 ft 427 kts 229°
2026-04-29 11:01 40.04312 -3.05938 36915 ft 428 kts 229°
2026-04-29 11:02 40.00485 -3.11872 36916 ft 428 kts 229°
2026-04-29 11:02 39.96649 -3.17811 36923 ft 428 kts 229°
2026-04-29 11:03 39.92806 -3.23749 36922 ft 428 kts 229°
2026-04-29 11:03 39.88964 -3.29672 36900 ft 428 kts 229°
2026-04-29 11:04 39.85125 -3.35591 36909 ft 428 kts 229°
2026-04-29 11:04 39.81270 -3.41505 36924 ft 428 kts 229°
2026-04-29 11:05 39.77326 -3.47299 36903 ft 427 kts 224°
2026-04-29 11:05 39.73123 -3.52791 36890 ft 428 kts 225°
2026-04-29 11:06 39.68947 -3.58318 36895 ft 429 kts 225°
2026-04-29 11:06 39.64771 -3.63847 36894 ft 429 kts 225°
2026-04-29 11:07 39.60605 -3.69354 36896 ft 428 kts 225°
2026-04-29 11:07 39.56419 -3.74868 36893 ft 429 kts 225°
2026-04-29 11:08 39.52221 -3.80352 36893 ft 428 kts 225°
2026-04-29 11:08 39.48021 -3.85834 36898 ft 429 kts 225°
2026-04-29 11:09 39.43820 -3.91307 36895 ft 429 kts 225°
2026-04-29 11:09 39.39615 -3.96775 36901 ft 429 kts 225°
2026-04-29 11:10 39.35412 -4.02231 36899 ft 428 kts 225°
2026-04-29 11:10 39.31204 -4.07682 36903 ft 428 kts 225°
2026-04-29 11:11 39.27025 -4.13085 36906 ft 428 kts 225°
2026-04-29 11:11 39.22814 -4.18523 36899 ft 428 kts 225°
2026-04-29 11:12 39.18611 -4.23940 36903 ft 427 kts 225°
2026-04-29 11:12 39.14399 -4.29358 36899 ft 427 kts 225°
2026-04-29 11:13 39.10196 -4.34755 36904 ft 427 kts 225°
2026-04-29 11:13 39.05999 -4.40134 36911 ft 426 kts 225°
2026-04-29 11:14 39.01789 -4.45521 36903 ft 426 kts 225°
2026-04-29 11:14 38.97588 -4.50889 36904 ft 426 kts 225°
2026-04-29 11:15 38.93381 -4.56251 36897 ft 426 kts 225°
2026-04-29 11:15 38.89172 -4.61604 36903 ft 426 kts 225°
2026-04-29 11:16 38.84965 -4.66946 36893 ft 425 kts 225°
2026-04-29 11:16 38.80762 -4.72274 36900 ft 425 kts 225°
2026-04-29 11:17 38.76554 -4.77600 36892 ft 425 kts 225°
2026-04-29 11:17 38.72349 -4.82912 36894 ft 425 kts 225°
2026-04-29 11:18 38.68138 -4.88221 36888 ft 424 kts 225°
2026-04-29 11:18 38.63937 -4.93510 36895 ft 424 kts 225°
2026-04-29 11:19 38.59732 -4.98793 36890 ft 424 kts 225°
2026-04-29 11:19 38.55527 -5.04068 36893 ft 423 kts 225°
2026-04-29 11:20 38.51302 -5.09227 36880 ft 423 kts 217°
2026-04-29 11:20 38.46094 -5.12826 36885 ft 425 kts 208°
2026-04-29 11:21 38.40808 -5.16186 36890 ft 425 kts 207°
2026-04-29 11:21 38.35528 -5.19475 36898 ft 425 kts 207°
2026-04-29 11:22 38.30210 -5.22772 36895 ft 424 kts 207°
2026-04-29 11:22 38.24902 -5.26058 36895 ft 424 kts 207°
2026-04-29 11:23 38.19592 -5.29339 36891 ft 424 kts 207°
2026-04-29 11:23 38.14280 -5.32616 36909 ft 425 kts 207°
2026-04-29 11:24 38.08964 -5.35889 36891 ft 424 kts 207°
2026-04-29 11:24 38.03657 -5.39152 36904 ft 424 kts 207°
2026-04-29 11:25 37.98345 -5.42413 36899 ft 424 kts 207°
2026-04-29 11:25 37.93039 -5.45665 36914 ft 424 kts 207°
2026-04-29 11:26 37.85068 -5.50541 36907 ft 424 kts 207°
2026-04-29 11:26 37.79763 -5.53779 36905 ft 424 kts 207°
2026-04-29 11:27 37.74452 -5.57015 36904 ft 423 kts 207°
2026-04-29 11:27 37.69142 -5.60246 36899 ft 423 kts 208°
2026-04-29 11:28 37.63842 -5.63466 36905 ft 423 kts 208°
2026-04-29 11:28 37.58535 -5.66685 36922 ft 423 kts 208°
2026-04-29 11:29 37.53237 -5.69894 36932 ft 423 kts 208°
2026-04-29 11:29 37.47933 -5.73102 36928 ft 423 kts 208°
2026-04-29 11:30 37.42707 -5.76445 36916 ft 419 kts 218°
2026-04-29 11:30 37.38983 -5.80328 36930 ft 419 kts 221°
2026-04-29 11:31 37.34513 -5.85024 36946 ft 419 kts 221°
2026-04-29 11:31 37.30065 -5.89744 36930 ft 418 kts 221°
2026-04-29 11:32 37.25627 -5.94456 36944 ft 418 kts 221°
2026-04-29 11:32 37.21187 -5.99162 36940 ft 418 kts 221°
2026-04-29 11:33 37.16746 -6.03862 36926 ft 417 kts 221°
2026-04-29 11:33 37.12311 -6.08548 36922 ft 417 kts 222°
2026-04-29 11:34 37.07901 -6.13200 36924 ft 417 kts 222°
2026-04-29 11:34 37.03467 -6.17872 36919 ft 416 kts 222°
2026-04-29 11:35 36.99033 -6.22535 36924 ft 416 kts 222°
2026-04-29 11:35 36.94599 -6.27189 36929 ft 416 kts 222°
2026-04-29 11:36 36.90175 -6.31828 36929 ft 415 kts 222°
2026-04-29 11:36 36.85745 -6.36464 36931 ft 415 kts 222°
2026-04-29 11:37 36.81325 -6.41084 36938 ft 415 kts 222°
2026-04-29 11:37 36.76896 -6.45705 36935 ft 414 kts 222°
2026-04-29 11:38 36.72476 -6.50310 36936 ft 414 kts 222°
2026-04-29 11:38 36.68058 -6.54906 36937 ft 414 kts 222°
2026-04-29 11:39 36.63640 -6.59493 36938 ft 413 kts 222°
2026-04-29 11:39 36.59226 -6.64072 36935 ft 413 kts 222°
2026-04-29 11:40 36.54811 -6.68644 36936 ft 413 kts 222°
2026-04-29 11:40 36.50397 -6.73206 36935 ft 412 kts 222°
2026-04-29 11:41 36.45985 -6.77758 36938 ft 412 kts 222°
2026-04-29 11:41 36.41572 -6.82304 36938 ft 412 kts 222°
2026-04-29 11:42 36.37164 -6.86838 36936 ft 412 kts 222°
2026-04-29 11:42 36.32754 -6.91368 36938 ft 412 kts 222°
2026-04-29 11:43 36.28372 -6.95862 36935 ft 411 kts 222°
2026-04-29 11:43 36.23965 -7.00376 36938 ft 411 kts 222°
2026-04-29 11:44 36.19551 -7.04889 36940 ft 411 kts 222°
2026-04-29 11:44 36.15138 -7.09394 36941 ft 411 kts 222°
2026-04-29 11:45 36.10728 -7.13890 36942 ft 411 kts 222°
2026-04-29 11:45 36.06319 -7.18378 36940 ft 410 kts 222°
2026-04-29 11:46 36.01914 -7.22839 36925 ft 406 kts 224°
2026-04-29 11:46 35.97587 -7.27213 36892 ft 400 kts 224°
2026-04-29 11:47 35.95453 -7.29396 37011 ft 400 kts 224°
2026-04-29 11:47 35.93301 -7.31585 36942 ft 401 kts 224°
2026-04-29 11:47 35.88992 -7.35950 36941 ft 401 kts 224°
2026-04-29 11:48 35.84676 -7.40313 36943 ft 401 kts 223°
2026-04-29 11:48 35.80339 -7.44652 36948 ft 401 kts 223°
2026-04-29 11:49 35.75999 -7.48986 36945 ft 402 kts 223°
2026-04-29 11:49 35.71658 -7.53316 36945 ft 401 kts 223°
2026-04-29 11:50 35.67316 -7.57640 36950 ft 402 kts 223°
2026-04-29 11:50 35.62976 -7.61956 36948 ft 402 kts 223°
2026-04-29 11:51 35.58628 -7.66275 36948 ft 402 kts 223°
2026-04-29 11:51 35.54277 -7.70589 36950 ft 402 kts 223°
2026-04-29 11:52 35.49928 -7.74896 36951 ft 402 kts 223°
2026-04-29 11:52 35.45579 -7.79196 36950 ft 402 kts 223°
2026-04-29 11:53 35.41231 -7.83504 36951 ft 402 kts 223°
2026-04-29 11:53 35.36899 -7.87843 36953 ft 402 kts 223°
2026-04-29 11:54 35.32569 -7.92170 36953 ft 402 kts 223°
2026-04-29 11:54 35.28234 -7.96496 36953 ft 402 kts 223°
2026-04-29 11:55 35.23895 -8.00819 36954 ft 402 kts 223°
2026-04-29 11:55 35.19556 -8.05137 36958 ft 402 kts 223°
2026-04-29 11:56 35.15214 -8.09450 36958 ft 403 kts 223°
2026-04-29 11:56 35.10864 -8.13766 36957 ft 403 kts 223°
2026-04-29 11:57 35.06545 -8.18046 36956 ft 403 kts 223°
2026-04-29 11:57 35.02190 -8.22354 36955 ft 403 kts 223°
2026-04-29 11:58 34.97830 -8.26661 36955 ft 403 kts 223°
2026-04-29 11:58 34.93468 -8.30965 36957 ft 403 kts 223°
2026-04-29 11:59 34.89106 -8.35262 36957 ft 403 kts 223°
2026-04-29 11:59 34.84740 -8.39557 36959 ft 403 kts 223°
2026-04-29 12:00 34.80375 -8.43846 36959 ft 403 kts 223°
2026-04-29 12:00 34.76006 -8.48131 36962 ft 404 kts 222°
2026-04-29 12:01 34.71629 -8.52419 36964 ft 404 kts 222°
2026-04-29 12:01 34.67253 -8.56700 36962 ft 404 kts 222°
2026-04-29 12:02 34.62872 -8.60979 36963 ft 404 kts 222°
2026-04-29 12:02 34.58486 -8.65259 36966 ft 404 kts 222°
2026-04-29 12:03 34.54099 -8.69533 36965 ft 405 kts 222°
2026-04-29 12:03 34.49709 -8.73804 36965 ft 404 kts 222°
2026-04-29 12:04 34.45316 -8.78073 36968 ft 406 kts 221°
2026-04-29 12:04 34.40886 -8.82336 36971 ft 406 kts 222°
2026-04-29 12:05 34.36502 -8.86552 36968 ft 405 kts 222°
2026-04-29 12:05 34.32083 -8.90797 36967 ft 406 kts 221°
2026-04-29 12:06 34.27662 -8.95037 36967 ft 406 kts 221°
2026-04-29 12:06 34.23233 -8.99280 36964 ft 406 kts 221°
2026-04-29 12:07 34.18805 -9.03516 36966 ft 406 kts 221°
2026-04-29 12:07 34.14364 -9.07758 36967 ft 407 kts 221°
2026-04-29 12:08 34.09925 -9.11993 36969 ft 407 kts 221°
2026-04-29 12:08 34.05486 -9.16222 36966 ft 407 kts 221°
2026-04-29 12:09 34.01036 -9.20455 36973 ft 407 kts 221°
2026-04-29 12:09 33.96582 -9.24686 36968 ft 407 kts 221°
2026-04-29 12:10 33.92134 -9.28906 36969 ft 407 kts 221°
2026-04-29 12:10 33.87677 -9.33130 36975 ft 408 kts 221°
2026-04-29 12:11 33.83213 -9.37353 36973 ft 408 kts 221°
2026-04-29 12:11 33.78747 -9.41572 36972 ft 408 kts 221°
2026-04-29 12:12 33.74280 -9.45787 36977 ft 409 kts 221°
2026-04-29 12:12 33.69801 -9.50008 36977 ft 409 kts 221°
2026-04-29 12:13 33.65320 -9.54224 36976 ft 409 kts 221°
2026-04-29 12:13 33.60833 -9.58441 36976 ft 410 kts 221°
2026-04-29 12:14 33.56378 -9.62621 36978 ft 410 kts 221°
2026-04-29 12:14 33.51881 -9.66835 36976 ft 410 kts 220°
2026-04-29 12:15 33.47387 -9.71042 36977 ft 411 kts 220°
2026-04-29 12:15 33.42880 -9.75254 36977 ft 411 kts 220°
2026-04-29 12:16 33.38366 -9.79467 36982 ft 411 kts 220°
2026-04-29 12:16 33.33855 -9.83672 36987 ft 412 kts 220°
2026-04-29 12:17 33.29332 -9.87882 36986 ft 412 kts 220°
2026-04-29 12:17 33.24809 -9.92086 36977 ft 412 kts 220°
2026-04-29 12:18 33.20279 -9.96291 36979 ft 412 kts 220°
2026-04-29 12:18 33.15742 -10.00498 36985 ft 413 kts 220°
2026-04-29 12:19 33.11209 -10.04696 36980 ft 413 kts 220°
2026-04-29 12:19 33.06666 -10.08898 36980 ft 413 kts 220°
2026-04-29 12:20 33.02884 -10.12391 36980 ft 414 kts 220°
2026-04-29 12:20 32.98324 -10.16588 36985 ft 414 kts 220°
2026-04-29 12:21 32.93762 -10.20783 36983 ft 415 kts 220°
2026-04-29 12:21 32.89190 -10.24983 36980 ft 415 kts 220°
2026-04-29 12:22 32.84623 -10.29173 36984 ft 415 kts 220°
2026-04-29 12:22 32.80039 -10.33372 36979 ft 416 kts 220°
2026-04-29 12:23 32.75455 -10.37566 36983 ft 416 kts 220°
2026-04-29 12:23 32.70858 -10.41765 36985 ft 417 kts 220°
2026-04-29 12:24 32.66265 -10.45956 36987 ft 417 kts 220°
2026-04-29 12:24 32.61661 -10.50150 36987 ft 417 kts 220°
2026-04-29 12:25 32.57059 -10.54339 36987 ft 418 kts 220°
2026-04-29 12:26 32.50135 -10.60629 36987 ft 418 kts 220°
2026-04-29 12:26 32.45512 -10.64822 36988 ft 419 kts 220°
2026-04-29 12:27 32.40886 -10.69012 36987 ft 419 kts 220°
2026-04-29 12:27 32.36255 -10.73201 36988 ft 419 kts 220°
2026-04-29 12:28 32.31615 -10.77393 36988 ft 420 kts 220°
2026-04-29 12:28 32.26969 -10.81584 36987 ft 420 kts 220°
2026-04-29 12:29 32.22317 -10.85776 36989 ft 421 kts 220°
2026-04-29 12:29 32.17661 -10.89965 36986 ft 421 kts 220°
2026-04-29 12:30 32.13036 -10.94121 36987 ft 421 kts 220°
2026-04-29 12:30 32.08370 -10.98308 36988 ft 421 kts 220°
2026-04-29 12:31 32.03701 -11.02492 36989 ft 422 kts 220°
2026-04-29 12:31 31.99031 -11.06673 36990 ft 422 kts 220°
2026-04-29 12:32 31.94356 -11.10852 36992 ft 422 kts 220°
2026-04-29 12:32 31.89672 -11.15032 36990 ft 422 kts 220°
2026-04-29 12:33 31.84986 -11.19212 36993 ft 423 kts 220°
2026-04-29 12:33 31.80299 -11.23387 36991 ft 423 kts 220°
2026-04-29 12:34 31.75611 -11.27559 36992 ft 423 kts 220°
2026-04-29 12:34 31.70920 -11.31745 36994 ft 423 kts 220°
2026-04-29 12:35 31.66232 -11.35922 36991 ft 423 kts 220°
2026-04-29 12:35 31.61542 -11.40098 36991 ft 423 kts 220°
2026-04-29 12:36 31.56848 -11.44271 36988 ft 423 kts 220°
2026-04-29 12:36 31.52151 -11.48441 36993 ft 423 kts 220°
2026-04-29 12:37 31.47461 -11.52600 36996 ft 423 kts 220°
2026-04-29 12:37 31.42757 -11.56765 36996 ft 423 kts 220°
2026-04-29 12:38 31.38059 -11.60921 36993 ft 423 kts 220°
2026-04-29 12:38 31.33359 -11.65072 36990 ft 423 kts 220°
2026-04-29 12:39 31.28663 -11.69216 36991 ft 423 kts 220°
2026-04-29 12:39 31.23998 -11.73325 36994 ft 423 kts 220°
2026-04-29 12:40 31.19300 -11.77459 36990 ft 423 kts 220°
2026-04-29 12:40 31.14604 -11.81586 37002 ft 422 kts 220°
2026-04-29 12:41 31.09915 -11.85703 37003 ft 422 kts 220°
2026-04-29 12:41 31.05221 -11.89817 36998 ft 422 kts 220°
2026-04-29 12:42 31.00534 -11.93920 36993 ft 421 kts 220°
2026-04-29 12:42 30.95843 -11.98021 36997 ft 421 kts 220°
2026-04-29 12:43 30.91156 -12.02114 36995 ft 421 kts 220°
2026-04-29 12:43 30.86477 -12.06196 36996 ft 420 kts 220°
2026-04-29 12:44 30.81798 -12.10272 36995 ft 420 kts 220°
2026-04-29 12:44 30.77119 -12.14342 36997 ft 419 kts 220°
2026-04-29 12:45 30.72453 -12.18397 36996 ft 419 kts 220°
2026-04-29 12:45 30.67779 -12.22452 36999 ft 419 kts 220°
2026-04-29 12:46 30.63120 -12.26491 36999 ft 418 kts 220°
2026-04-29 12:46 30.58456 -12.30530 37000 ft 418 kts 220°
2026-04-29 12:47 30.53798 -12.34559 36999 ft 417 kts 220°
2026-04-29 12:47 30.49175 -12.38544 37001 ft 417 kts 220°
2026-04-29 12:48 30.44517 -12.42547 37002 ft 416 kts 220°
2026-04-29 12:48 30.39866 -12.46542 37003 ft 416 kts 220°
2026-04-29 12:49 30.35221 -12.50527 37004 ft 415 kts 220°
2026-04-29 12:49 30.30576 -12.54506 37007 ft 415 kts 220°
2026-04-29 12:50 30.25933 -12.58479 37003 ft 415 kts 220°
2026-04-29 12:50 30.21297 -12.62441 37004 ft 414 kts 220°
2026-04-29 12:51 30.16663 -12.66398 37000 ft 414 kts 220°
2026-04-29 12:51 30.12036 -12.70344 37004 ft 413 kts 220°
2026-04-29 12:52 30.07575 -12.74496 37009 ft 412 kts 223°
2026-04-29 12:52 30.03141 -12.78682 37008 ft 411 kts 222°
2026-04-29 12:53 29.98712 -12.82847 37004 ft 411 kts 222°
2026-04-29 12:53 29.94283 -12.87005 37007 ft 410 kts 222°
2026-04-29 12:54 29.89863 -12.91151 37003 ft 410 kts 222°
2026-04-29 12:54 29.85446 -12.95288 37006 ft 409 kts 222°
2026-04-29 12:55 29.81031 -12.99419 37010 ft 409 kts 222°
2026-04-29 12:55 29.76616 -13.03545 37009 ft 408 kts 222°
2026-04-29 12:56 29.72211 -13.07657 37008 ft 408 kts 222°
2026-04-29 12:56 29.67833 -13.11739 37009 ft 407 kts 222°
2026-04-29 12:57 29.63430 -13.15839 37007 ft 407 kts 222°
2026-04-29 12:57 29.59030 -13.19932 37009 ft 407 kts 221°
2026-04-29 12:58 29.54634 -13.24016 37009 ft 406 kts 221°
2026-04-29 12:58 29.50236 -13.28097 37008 ft 406 kts 221°
2026-04-29 12:59 29.45839 -13.32173 37010 ft 406 kts 221°
2026-04-29 12:59 29.41443 -13.36243 37009 ft 406 kts 221°
2026-04-29 13:00 29.37060 -13.40297 37008 ft 406 kts 221°
2026-04-29 13:00 29.32656 -13.44366 37010 ft 405 kts 221°
2026-04-29 13:01 29.28277 -13.48406 37008 ft 405 kts 221°
2026-04-29 13:01 29.23874 -13.52464 37004 ft 406 kts 221°
2026-04-29 13:02 29.19478 -13.56512 37003 ft 405 kts 221°
2026-04-29 13:02 29.15082 -13.60554 36994 ft 405 kts 221°
2026-04-29 13:03 29.10687 -13.64591 36989 ft 405 kts 221°
2026-04-29 13:03 29.06291 -13.68623 37003 ft 405 kts 219°
2026-04-29 13:04 29.01938 -13.72668 37010 ft 403 kts 220°
2026-04-29 13:04 28.97540 -13.76648 36996 ft 403 kts 220°
2026-04-29 13:05 28.93166 -13.80641 36993 ft 403 kts 220°
2026-04-29 13:05 28.88791 -13.84637 36993 ft 402 kts 220°
2026-04-29 13:06 28.84418 -13.88626 36992 ft 402 kts 220°
2026-04-29 13:06 28.80050 -13.92607 36997 ft 402 kts 220°
2026-04-29 13:07 28.75709 -13.96559 37000 ft 402 kts 220°
2026-04-29 13:07 28.71346 -14.00527 37005 ft 401 kts 220°
2026-04-29 13:08 28.66983 -14.04490 37005 ft 401 kts 220°
2026-04-29 13:08 28.63330 -14.07806 37003 ft 401 kts 220°
2026-04-29 13:09 28.58974 -14.11754 37006 ft 400 kts 220°
2026-04-29 13:09 28.54647 -14.15672 37005 ft 400 kts 220°
2026-04-29 13:10 28.50297 -14.19608 37002 ft 400 kts 220°
2026-04-29 13:10 28.45918 -14.23565 36999 ft 400 kts 220°
2026-04-29 13:11 28.41593 -14.27469 36997 ft 399 kts 220°
2026-04-29 13:11 28.37245 -14.31389 36999 ft 399 kts 220°
2026-04-29 13:12 28.32895 -14.35307 36997 ft 399 kts 220°
2026-04-29 13:12 28.28551 -14.39216 36997 ft 398 kts 221°
2026-04-29 13:13 28.24205 -14.43122 37001 ft 398 kts 221°
2026-04-29 13:13 28.19862 -14.47022 36992 ft 399 kts 221°
2026-04-29 13:14 28.15490 -14.50944 37008 ft 401 kts 221°
2026-04-29 13:14 28.11121 -14.54859 37004 ft 400 kts 221°
2026-04-29 13:15 28.06751 -14.58771 37008 ft 400 kts 221°
2026-04-29 13:15 28.02433 -14.62671 37001 ft 398 kts 225°
2026-04-29 13:15 28.00696 -14.65068 37002 ft 393 kts 241°
2026-04-29 13:16 27.99622 -14.67952 37014 ft 394 kts 252°
2026-04-29 13:16 27.98099 -14.73937 37007 ft 396 kts 253°
2026-04-29 13:17 27.96728 -14.79970 37005 ft 396 kts 254°
2026-04-29 13:17 27.95411 -14.85978 37006 ft 396 kts 254°
2026-04-29 13:18 27.94109 -14.91963 36882 ft 383 kts 254°
2026-04-29 13:18 27.93476 -14.94874 36398 ft 379 kts 254°
2026-04-29 13:18 27.92846 -14.97764 35861 ft 378 kts 254°
2026-04-29 13:18 27.92219 -15.00638 35365 ft 375 kts 254°
2026-04-29 13:19 27.91596 -15.03493 34885 ft 373 kts 254°
2026-04-29 13:19 27.90975 -15.06332 34410 ft 371 kts 254°
2026-04-29 13:19 27.90357 -15.09159 33915 ft 369 kts 254°
2026-04-29 13:19 27.89742 -15.11967 33372 ft 368 kts 254°
2026-04-29 13:20 27.89129 -15.14763 32893 ft 365 kts 254°
2026-04-29 13:20 27.88520 -15.17536 32411 ft 362 kts 254°
2026-04-29 13:20 27.87916 -15.20289 31962 ft 359 kts 253°
2026-04-29 13:20 27.87315 -15.23020 31513 ft 357 kts 253°
2026-04-29 13:21 27.86718 -15.25733 31066 ft 355 kts 253°
2026-04-29 13:21 27.86122 -15.28438 30624 ft 353 kts 253°
2026-04-29 13:21 27.85530 -15.31122 30190 ft 351 kts 253°
2026-04-29 13:21 27.84940 -15.33793 29694 ft 350 kts 254°
2026-04-29 13:22 27.84354 -15.36448 29239 ft 347 kts 254°
2026-04-29 13:22 27.83771 -15.39086 28815 ft 344 kts 254°
2026-04-29 13:22 27.83196 -15.41700 28394 ft 341 kts 255°
2026-04-29 13:22 27.83004 -15.44374 27892 ft 345 kts 272°
2026-04-29 13:23 27.83257 -15.47056 27545 ft 341 kts 271°
2026-04-29 13:23 27.83457 -15.49711 27173 ft 338 kts 271°
2026-04-29 13:23 27.83668 -15.52343 26794 ft 335 kts 271°
2026-04-29 13:23 27.83887 -15.54959 26408 ft 333 kts 272°
2026-04-29 13:24 27.84109 -15.57555 26041 ft 332 kts 272°
2026-04-29 13:24 27.84333 -15.60148 25662 ft 330 kts 272°
2026-04-29 13:24 27.84555 -15.62716 25279 ft 328 kts 272°
2026-04-29 13:24 27.84776 -15.65274 24926 ft 326 kts 272°
2026-04-29 13:25 27.84995 -15.67811 24522 ft 324 kts 273°
2026-04-29 13:25 27.85427 -15.72839 23842 ft 320 kts 273°
2026-04-29 13:25 27.85641 -15.75339 23445 ft 319 kts 274°
2026-04-29 13:26 27.85851 -15.77788 23040 ft 317 kts 273°
2026-04-29 13:26 27.86064 -15.80291 22676 ft 315 kts 273°
2026-04-29 13:26 27.86270 -15.82710 22321 ft 312 kts 273°
2026-04-29 13:26 27.86477 -15.85140 21978 ft 309 kts 273°
2026-04-29 13:27 27.86681 -15.87547 21638 ft 306 kts 273°
2026-04-29 13:27 27.86882 -15.89923 21303 ft 304 kts 272°
2026-04-29 13:27 27.87083 -15.92299 20967 ft 301 kts 272°
2026-04-29 13:27 27.87281 -15.94643 20635 ft 299 kts 272°
2026-04-29 13:28 27.87477 -15.96973 20318 ft 296 kts 272°
2026-04-29 13:28 27.87671 -15.99283 19983 ft 294 kts 272°
2026-04-29 13:28 27.87863 -16.01577 19659 ft 292 kts 272°
2026-04-29 13:28 27.88053 -16.03856 19339 ft 291 kts 272°
2026-04-29 13:29 27.88246 -16.06156 19007 ft 296 kts 272°
2026-04-29 13:29 27.88440 -16.08485 18676 ft 300 kts 272°
2026-04-29 13:29 27.88635 -16.10839 18340 ft 300 kts 272°
2026-04-29 13:29 27.88802 -16.12852 18026 ft 299 kts 272°
2026-04-29 13:30 27.88996 -16.15187 17672 ft 297 kts 272°
2026-04-29 13:30 27.89187 -16.17502 17336 ft 294 kts 273°
2026-04-29 13:30 27.89376 -16.19795 17006 ft 292 kts 273°
2026-04-29 13:30 27.89564 -16.22066 16696 ft 289 kts 273°
2026-04-29 13:31 27.89749 -16.24319 16373 ft 287 kts 273°
2026-04-29 13:31 27.89762 -16.26555 15998 ft 283 kts 257°
2026-04-29 13:31 27.89124 -16.28636 15693 ft 280 kts 248°
2026-04-29 13:31 27.88412 -16.30673 15384 ft 277 kts 248°
2026-04-29 13:32 27.87689 -16.32685 15085 ft 275 kts 248°
2026-04-29 13:32 27.86961 -16.34682 14782 ft 274 kts 248°
2026-04-29 13:32 27.86231 -16.36663 14453 ft 273 kts 248°
2026-04-29 13:32 27.85495 -16.38643 14137 ft 272 kts 248°
2026-04-29 13:33 27.84763 -16.40604 13840 ft 271 kts 248°
2026-04-29 13:33 27.84026 -16.42574 13515 ft 275 kts 247°
2026-04-29 13:33 27.83277 -16.44575 13176 ft 279 kts 247°
2026-04-29 13:33 27.82518 -16.46598 12861 ft 280 kts 247°
2026-04-29 13:34 27.81758 -16.48622 12546 ft 280 kts 247°
2026-04-29 13:34 27.80998 -16.50646 12239 ft 280 kts 247°
2026-04-29 13:34 27.80238 -16.52669 11919 ft 280 kts 247°
2026-04-29 13:34 27.79477 -16.54692 11584 ft 279 kts 247°
2026-04-29 13:35 27.78722 -16.56701 11291 ft 277 kts 247°
2026-04-29 13:35 27.77973 -16.58691 11001 ft 274 kts 247°
2026-04-29 13:35 27.77230 -16.60666 10707 ft 272 kts 247°
2026-04-29 13:35 27.76499 -16.62607 10524 ft 265 kts 247°
2026-04-29 13:36 27.75788 -16.64492 10392 ft 257 kts 247°
2026-04-29 13:36 27.75098 -16.66322 10257 ft 249 kts 247°
2026-04-29 13:36 27.74473 -16.68128 9967 ft 248 kts 256°
2026-04-29 13:36 27.74492 -16.70097 9229 ft 259 kts 285°
2026-04-29 13:37 27.75378 -16.71813 8629 ft 258 kts 311°
2026-04-29 13:37 27.76697 -16.73209 7990 ft 255 kts 315°
2026-04-29 13:37 27.77973 -16.74546 7398 ft 251 kts 315°
2026-04-29 13:37 27.79236 -16.75872 6910 ft 245 kts 315°
2026-04-29 13:38 27.80471 -16.77170 6439 ft 243 kts 315°
2026-04-29 13:38 27.81705 -16.78467 5922 ft 241 kts 315°
2026-04-29 13:38 27.82926 -16.79751 5414 ft 239 kts 315°
2026-04-29 13:38 27.84141 -16.81029 4916 ft 238 kts 316°
2026-04-29 13:39 27.85352 -16.82301 4413 ft 239 kts 317°
2026-04-29 13:39 27.86772 -16.83229 4135 ft 231 kts 335°
2026-04-29 13:39 27.88239 -16.83949 4010 ft 230 kts 335°
2026-04-29 13:39 27.89711 -16.84668 3898 ft 231 kts 335°
2026-04-29 13:40 27.91202 -16.85341 3816 ft 231 kts 345°
2026-04-29 13:40 27.92791 -16.85306 3705 ft 232 kts 17°
2026-04-29 13:40 27.94158 -16.84361 3646 ft 232 kts 46°
2026-04-29 13:40 27.95064 -16.82850 3639 ft 233 kts 57°
2026-04-29 13:41 27.95915 -16.81290 3618 ft 233 kts 61°
2026-04-29 13:41 27.96627 -16.79646 3569 ft 233 kts 66°
2026-04-29 13:41 27.97250 -16.77963 3515 ft 226 kts 69°
2026-04-29 13:41 27.97805 -16.76370 3420 ft 212 kts 69°
2026-04-29 13:42 27.98332 -16.74841 3166 ft 206 kts 69°
2026-04-29 13:42 27.98854 -16.73350 2910 ft 202 kts 69°
2026-04-29 13:42 27.99364 -16.71886 2643 ft 198 kts 69°
2026-04-29 13:42 27.99862 -16.70452 2383 ft 194 kts 69°
2026-04-29 13:43 28.00350 -16.69041 2147 ft 190 kts 70°
2026-04-29 13:43 28.00821 -16.67664 1907 ft 187 kts 69°
2026-04-29 13:43 28.01297 -16.66300 1646 ft 185 kts 70°
2026-04-29 13:43 28.01771 -16.64957 1377 ft 181 kts 70°
2026-04-29 13:44 28.02209 -16.63699 1213 ft 163 kts 70°
2026-04-29 13:44 28.02618 -16.62508 976 ft 162 kts 71°
2026-04-29 13:44 28.03022 -16.61331 740 ft 158 kts 71°
2026-04-29 13:44 28.03425 -16.60170 510 ft 159 kts 70°
2026-04-29 13:45 28.03834 -16.59017 300 ft 156 kts 71°
2026-04-29 13:45 28.04213 -16.57924 199 ft 137 kts 69°
2026-04-29 13:45 28.04485 -16.57140 206 ft 72 kts 68°
2026-04-29 13:45 28.04638 -16.56709 208 ft 44 kts 67°
2026-04-29 13:46 28.04814 -16.56445 217 ft 35 kts 43°
2026-04-29 13:46 28.04894 -16.56359 223 ft 10 kts 41°
2026-04-29 13:46 28.04945 -16.56370 221 ft 6 kts 281°
2026-04-29 13:46 28.04930 -16.56421 221 ft 9 kts 247°
2026-04-29 13:47 28.04896 -16.56517 221 ft 17 kts 249°
2026-04-29 13:47 28.04840 -16.56677 221 ft 27 kts 248°
2026-04-29 13:47 28.04764 -16.56894 223 ft 30 kts 249°
2026-04-29 13:47 28.04694 -16.57094 225 ft 27 kts 246°
2026-04-29 13:48 28.04616 -16.57292 226 ft 29 kts 249°
2026-04-29 13:48 28.04542 -16.57503 225 ft 29 kts 248°
2026-04-29 13:48 28.04469 -16.57711 225 ft 29 kts 249°
2026-04-29 13:48 28.04415 -16.57869 226 ft 12 kts 255°
2026-04-29 13:49 28.04463 -16.57914 226 ft 11 kts 339°
2026-04-29 13:49 28.04532 -16.57919 228 ft 9 kts 22°
2026-04-29 13:49 28.04595 -16.57901 228 ft 10 kts
2026-04-29 13:49 28.04631 -16.57897 228 ft 2 kts
2026-04-29 13:50 28.04640 -16.57896 228 ft 0 kts